sat.trackr.live / text

‹ back to catalog

JILIN-1 GAOFEN 3I

NORAD 46461 · 2020-065H

PAYLOAD ACTIVE UNKNOWN

§ Identity

Operator
Country
PRC
Launch date
2020-09-15
Launch site
SEAL
Launch vehicle
Mass (kg)
RCS (m²)

External: N2YO · Heavens-Above · Gunter

§ Orbital elements

Epoch: 2026-06-08T02:43:13.416672Z

Period
88.53 min
Inclination
97.1997°
Eccentricity
0.0009502
Mean motion
16.26513082 rev/d
Perigee alt
195.7 km
Apogee alt
208.2 km
Semi-major
6,580.1 km
B*
9.2949e-4
RAAN
221.1449°
Arg perigee
252.4087°
Mean anomaly
107.6168°
Rev number
31,892

§ Raw data

JILIN-1 GAOFEN 3I1 46461U 20065H   26159.11334973  .02985542  23538-5  92949-3 0  99952 46461  97.1997 221.1449 0009502 252.4087 107.6168 16.26513082318928

JSON: /api/v1/satellites/46461 · /tle

For live sub-satellite position, see the globe view (requires WebGL).

§ Visibility from observer

Set your observer location to see the next 7 days of passes ≥ 10°. The values pass through the URL so the page stays shareable.

No JS? Fill the form by hand. The geolocation button needs JavaScript.